BEIDOU-3 M20 (C42)

Last updated on Sat Oct 18 2025 00:03:30 GMT+0000 (Coordinated Universal Time)

1 44865U 19090B 25289.27705067 -.00000005 00000+0 00000+0 0 9990 2 44865 56.3463 70.8997 0013112 300.6322 233.6709 1.86231397 39675
UTC large
Height (km)
Speed (km/s)
/
Latitude / Longitude
Inclination (degrees)
Orbital Period (minutes)
Azimuth
Elevation
Range (km)
Doppler Factor

Next 0 passes for location: London (51.5072 / 0.1276)

Sorry there are no passes over London.